CARTOSAT-2D

Last updated on Mon Sep 21 2026 00:02:46 GMT+0000 (Coordinated Universal Time)

1 41948U 17008A 26263.59429264 .00001914 00000+0 94032-4 0 9998 2 41948 97.4009 321.0630 0003374 275.6110 84.4740 15.19239936532062
UTC large
Height (km)
Speed (km/s)
/
Latitude / Longitude
Inclination (degrees)
Orbital Period (minutes)
Azimuth
Elevation
Range (km)
Doppler Factor

Next 0 passes for location: London (51.5072 / 0.1276)

No passes found over London.
CARTOSAT-2D